{"data":{"norad_id":57918,"epoch":"2026-05-25T04:53:01.656096Z","epoch_age_seconds":57425,"freshness":"FRESH","line1":"1 57918U 23147F   26145.20349139 -.00000461  00000+0 -72413-5 0  9990","line2":"2 57918  43.0024 108.1114 0001479 269.9951  90.0731 15.27574525150035","mean_motion":15.27574525,"eccentricity":0.0001479,"inclination_deg":43.0024,"raan_deg":108.1114,"arg_perigee_deg":269.9951,"mean_anomaly_deg":90.0731,"bstar":-7.2413e-6,"rev_number":15003,"period_min":94.267086576349,"perigee_km":482.05071835994,"apogee_km":484.08026205654,"semimajor_km":6861.2024902082,"source":"CELESTRAK","updated_at":"2026-05-25T13:38:18.457193Z"}}